Flag Weather past 2 weeks in Bad Oeynhausen, North Rhine-Westphalia, Germany

Now
37 °F

Passing clouds.


Feels Like: 33 °F
Forecast: 36 / 43 °F
Wind: 6 mph from South

Location: Bueckeburg

Current Time: Nov 25, 2014 at 1:54:11 AM

Latest Report: Nov 25, 2014 at 1:20 AM


Visibility: N/A

Pressure: 30.33 "Hg

Humidity: 93%

Dew point: 36 °F

Location of Bad OeynhausenLocation

Historic Weather in Bad Oeynhausen — Graph

°F

Bad Oeynhausen temperature yesterday

Maximum temperature yesterday: 52 °F (at 12:20 AM)
Minimum temperature yesterday: 39 °F (at 11:20 PM)
Average temperature yesterday: 47 °F

Past Weeks' High & Low Weather Summary

 TemperatureHumidityPressure
High57 °F (Nov 11, 1:20 PM)100% (Nov 12, 5:20 PM)30.36 "Hg (Nov 12, 5:20 PM)
Low36 °F (Nov 21, 7:20 AM)59% (Nov 23, 2:20 PM)29.50 "Hg (Nov 16, 11:20 AM)
Average47 °F85%29.93 "Hg
* Reported Nov 10 12:20 AM — Nov 25 12:20 AM, Bad Oeynhausen, Weather by CustomWeather, © 2014

Note: Actual official high and low records may vary slightly from our data, if they occured in-between our weather recording intervals... More about our weather records

Advertising

Bad Oeynhausen weather history for previous 24 hours

 ConditionsComfort  
Time TempWeatherWind HumidityBarometerVisibility
12:20 AM
Nov 25
37 °FPassing clouds.3 mph93%30.33 "HgN/A
11:20 PM
Nov 24
39 °FPassing clouds.3 mph87%30.33 "HgN/A
10:20 PM41 °FPassing clouds.6 mph87%30.33 "HgN/A
9:20 PM41 °FPassing clouds.2 mph81%30.33 "HgN/A
8:20 PM41 °FPassing clouds.2 mph81%30.30 "HgN/A
7:20 PM41 °FPassing clouds.5 mph81%30.30 "HgN/A
6:20 PM41 °FPassing clouds.6 mph87%30.27 "HgN/A
5:20 PM43 °FPassing clouds.6 mph81%30.27 "HgN/A
4:20 PM45 °FPassing clouds.6 mph76%30.27 "HgN/A
3:20 PM50 °FPassing clouds.7 mph62%30.24 "HgN/A
2:20 PM50 °FPassing clouds.9 mph67%30.24 "HgN/A
1:20 PM50 °FPassing clouds.10 mph71%30.24 "HgN/A
12:20 PM50 °FPassing clouds.9 mph71%30.21 "HgN/A
11:20 AM48 °FPassing clouds.12 mph82%30.21 "HgN/A
10:20 AM46 °FPassing clouds.13 mph87%30.21 "HgN/A
9:20 AM45 °FScattered clouds.10 mph93%30.18 "HgN/A
8:20 AM46 °FScattered clouds.13 mph87%30.15 "HgN/A
7:49 AM46 °FPassing clouds.17 mph93%30.12 "HgN/A
7:20 AM48 °FDrizzle. Fog.6 mph100%30.09 "Hg3 mi
6:20 AM48 °FLight rain. Partly cloudy.7 mph100%30.07 "Hg4 mi
5:20 AM50 °FDrizzle. Low clouds.10 mph94%30.07 "Hg4 mi
5:01 AM50 °FDrizzle. Fog.17 mph94%30.04 "Hg3 mi
4:20 AM52 °FLight rain. Overcast.10 mph88%30.01 "Hg4 mi
3:20 AM52 °FLight rain. Overcast.9 mph77%29.98 "HgN/A
2:20 AM52 °FLight rain. Partly cloudy.13 mph72%29.98 "HgN/A
1:20 AM52 °FPassing clouds.10 mph72%29.98 "HgN/A
Weather by CustomWeather, © 2014

See weather overviewHow to use our weather pages